Eau Claire, WI

8:47 AM CST on December 06, 2016 (GMT -0600)
Chippewa Valley Regional

Weather History for KEAU - January, 2013

Change the Weather History Date:

Thursday, January 10, 2013

  Actual Average Record
Temperature  
Mean Temperature 28 °F 14 °F  
Max Temperature 39 °F 23 °F 53 °F (2012)
Min Temperature 16 °F 5 °F -29 °F (1982)
Degree Days  
Heating Degree Days 38 51  
Month to date heating degree days 505  
Since 1 July heating degree days 3681  
Cooling Degree Days 0 0  
Month to date cooling degree days 0  
Year to date cooling degree days 0  
Moisture  
Dew Point 22 °F    
Average Humidity 73    
Maximum Humidity 96    
Minimum Humidity 45    
Precipitation  
Precipitation 0.23 in 0.02 in 0.37 in (1901)
Month to date precipitation 0.27  
Year to date precipitation 0.27  
Snow  
Snow 0.00 in 0.40 in 4.60 in (1976)
Month to date snowfall 3.8  
Since 1 July snowfall 19.6  
Snow Depth -    
Sea Level Pressure  
Sea Level Pressure 30.18 in    
Wind  
Wind Speed 4 mph (SE)    
Max Wind Speed 10 mph    
Max Gust Speed -    
Visibility 9 miles    
Events Rain    
T = Trace of Precipitation, MM = Missing Value Source: NWS Daily Summary

Daily Weather History Graph

Daily Weather History Graph

Search for Another Location

Airport or City:

Trip Planner

Search our weather history database for the weather conditions in past years. The results will help you decide how hot, cold, wet, or windy it might be!

Date:

Astronomy

Jan. 10, 2013 Rise Set
Actual Time 7:42 AM CST 4:45 PM CST
Civil Twilight 7:09 AM CST 5:18 PM CST
Nautical Twilight 6:32 AM CST 5:54 PM CST
Astronomical Twilight 5:57 AM CST 6:30 PM CST
Moon 6:22 AM CST (1/10) 3:54 PM CST (1/10)
Length of Visible Light 10h 09m
Length of Day
9h 03m
Waning Crescent, 2% of the Moon is Illuminated
Jan 10
Waning Crescent
Jan 11
New
Jan 18
First Quarter
Jan 26
Full
Feb 3
Last Quarter

Hourly Weather History & Observations

Time (CST) Temp. Windchill Dew Point Humidity Pressure Visibility Wind Dir Wind Speed Gust Speed Precip Events Conditions
12:56 AM 19.9 °F - 17.1 °F 89% 30.41 in 10.0 mi Calm Calm - N/A   Clear
1:56 AM 18.0 °F 12.7 °F 16.0 °F 92% 30.42 in 10.0 mi East 3.5 mph - N/A   Clear
2:56 AM 16.0 °F - 14.0 °F 92% 30.42 in 10.0 mi Calm Calm - N/A   Clear
3:56 AM 19.9 °F - 17.1 °F 89% 30.40 in 10.0 mi Calm Calm - N/A   Clear
4:56 AM 17.1 °F - 14.0 °F 88% 30.39 in 10.0 mi Calm Calm - N/A   Clear
5:56 AM 21.9 °F - 17.1 °F 82% 30.37 in 10.0 mi Calm Calm - N/A   Clear
6:56 AM 25.0 °F 17.1 °F 18.0 °F 75% 30.36 in 10.0 mi SSE 6.9 mph - N/A   Clear
7:56 AM 24.1 °F - 18.0 °F 77% 30.37 in 10.0 mi Calm Calm - N/A   Clear
8:56 AM 25.0 °F - 18.0 °F 75% 30.36 in 10.0 mi Calm Calm - N/A   Clear
9:56 AM 30.9 °F - 21.9 °F 69% 30.34 in 10.0 mi Calm Calm - N/A   Clear
10:56 AM 34.0 °F 28.8 °F 19.9 °F 56% 30.30 in 10.0 mi SE 5.8 mph - N/A   Clear
11:56 AM 37.0 °F 30.4 °F 19.0 °F 48% 30.25 in 10.0 mi SSE 9.2 mph - N/A   Clear
12:56 PM 37.9 °F 32.1 °F 18.0 °F 45% 30.19 in 10.0 mi ESE 8.1 mph - N/A   Clear
1:56 PM 37.9 °F 30.9 °F 19.0 °F 47% 30.16 in 10.0 mi SE 10.4 mph - N/A   Clear
2:56 PM 37.0 °F 31.0 °F 19.0 °F 48% 30.14 in 10.0 mi ESE 8.1 mph - N/A   Clear
3:56 PM 39.0 °F 32.8 °F 19.0 °F 45% 30.11 in 10.0 mi ESE 9.2 mph - N/A   Overcast
4:56 PM 37.9 °F 31.5 °F 19.0 °F 47% 30.07 in 10.0 mi ESE 9.2 mph - N/A   Overcast
5:56 PM 37.0 °F 32.4 °F 21.9 °F 54% 30.03 in 10.0 mi East 5.8 mph - 0.00 in   Overcast
6:56 PM 35.1 °F 27.9 °F 26.1 °F 70% 29.99 in 9.0 mi ESE 9.2 mph - 0.03 in Rain Light Rain
7:03 PM 35.6 °F 28.0 °F 26.6 °F 70% 29.95 in 7.0 mi ESE 10.4 mph - 0.01 in Rain Rain
7:56 PM 33.1 °F 26.1 °F 30.0 °F 89% 29.95 in 5.0 mi SE 8.1 mph - 0.12 in Rain Rain
8:42 PM 33.8 °F 26.4 °F 32.0 °F 93% 29.87 in 5.0 mi SE 9.2 mph - 0.06 in Rain Light Rain
8:56 PM 34.0 °F 27.2 °F 32.0 °F 92% 29.89 in 6.0 mi ESE 8.1 mph - 0.07 in Rain Light Rain
9:56 PM 35.1 °F 27.4 °F 32.0 °F 89% 29.87 in 10.0 mi SSE 10.4 mph - 0.01 in   Overcast
11:56 PM 34.0 °F 26.6 °F 33.1 °F 96% 29.82 in 4.0 mi SSE 9.2 mph - N/A   Overcast